Location: San Francisco
(37.7750°N, 122.4180°W)
Time: 06:02:14
(UTC-07:00)

Daily predictions for brighter satellites

Satellite Brightness Start Highest point End
(mag) Time Altitude Azimuth Time Altitude Azimuth Time Altitude Azimuth
ATLAS CENTAUR Rocket 4.4 20:07:50 10° WSW 20:14:03 53° S 20:56:13 10° ESE
ATLAS CENTAUR Rocket 4.4 20:07:50 10° WSW 20:14:04 53° S 20:56:14 10° ESE
ATLAS CENTAUR Rocket 4.4 20:07:50 10° WSW 20:14:04 53° S 20:56:13 10° ESE
ATLAS CENTAUR Rocket 4.4 20:07:49 10° WSW 20:14:04 53° S 20:56:13 10° ESE
Cosmos 1515 Rocket 4.1 20:59:36 10° N 21:03:49 42° E 21:07:59 10° SSE
Cosmos 371 Rocket 3.3 21:00:08 10° NNW 21:04:58 84° ENE 21:09:46 10° SSE
ALOS 2.8 21:02:55 10° S 21:07:32 62° W 21:12:10 10° NNW
Cosmos 2151 4.3 21:04:43 10° SE 21:07:54 21° E 21:11:06 10° NE
CZ-4 DEB 3.0 21:06:46 10° S 21:09:57 73° WSW 21:13:10 10° NNW
USA 229 DEB 3.7 21:03:04 10° SSW 21:09:58 78° ESE 21:16:58 10° NE
USA 229 3.7 21:03:10 10° SSW 21:10:04 77° ESE 21:17:04 10° NE
Tiangong 1 2.5 21:08:36 10° SSW 21:10:52 19° SE 21:13:09 10° E
Cosmos 968 Rocket 4.1 21:13:18 10° SSW 21:18:25 64° WNW 21:23:37 10° NNE
Cosmos 1441 Rocket 3.1 21:15:12 10° S 21:18:59 84° E 21:22:45 10° N
AVUM R/B 2.2 21:17:36 10° SSW 21:19:50 71° ESE 21:22:17 10° NNE
Cosmos 2219 3.9 21:17:16 10° SSE 21:22:20 33° ESE 21:27:26 10° NE
Cosmos 1151 Rocket 3.6 21:20:41 10° N 21:24:46 40° E 21:28:42 11° SSE
SPOT 5 3.4 21:23:11 10° SE 21:27:19 39° ENE 21:31:44 10° N
Cosmos 2058 4.3 21:25:16 12° SE 21:28:02 21° E 21:31:09 10° NE
PSLV R/B 4.4 21:27:00 13° SE 21:29:07 26° ENE 21:31:44 10° NNE
Cosmos 2266 Rocket 4.1 21:23:13 10° S 21:29:25 61° E 21:35:33 10° NNE
NOSS 3-1 (A) 4.3 21:25:22 10° SSE 21:29:59 25° ESE 21:34:54 10° ENE
Cosmos 2322 4.1 21:27:15 10° NNW 21:32:48 50° ENE 21:37:34 14° SE
Cosmos 1553 Rocket 4.3 21:28:00 10° N 21:34:23 75° W 21:40:39 10° S
Cosmos 1437 3.4 21:31:27 10° SSE 21:34:30 37° E 21:37:35 10° NNE
Cosmos 2322 Rocket 2.9 21:29:36 10° NNW 21:35:03 53° WSW 21:40:28 10° S
Envisat 3.0 21:36:50 10° SSE 21:41:53 76° ENE 21:46:58 10° N
Cosmos 1908 3.2 21:38:12 10° N 21:42:06 76° E 21:45:39 12° SSE
Cosmos 2360 Rocket 2.3 21:39:01 10° NNW 21:44:38 64° ENE 21:49:08 16° SE
Cosmos 304 Rocket 4.0 21:40:17 10° N 21:45:02 56° ENE 21:48:35 17° SE
ERS-1 Rocket 3.5 21:40:37 10° S 21:45:33 58° W 21:50:32 10° NNW
SL-16 R/B 3.1 21:40:30 10° NW 21:45:53 46° WSW 21:51:16 10° S
H-2A R/B 2.4 21:42:39 10° S 21:47:10 73° WSW 21:51:42 10° NNW
CZ-2C R/B 2.0 21:50:03 13° WSW 21:50:31 14° W 21:51:22 10° WNW
MetOp-B 4.3 21:47:14 16° SSE 21:51:29 57° ENE 21:56:45 10° N
Cosmos 1674 2.9 21:48:19 10° SSW 21:52:08 71° W 21:55:59 10° N
ATLAS 2AS CENTAUR R/B 4.2 21:50:45 15° ESE 21:52:39 17° ESE 21:57:13 10° ENE
Cosmos 2112 Rocket 4.2 21:49:54 10° N 21:55:04 58° ENE 21:58:39 20° SE
Cosmos 2298 Rocket 4.5 21:54:39 13° SSE 21:59:03 41° ESE 22:04:02 10° NNE
ATLAS CENTAUR R/B 4.1 21:57:49 10° W 21:59:33 12° WSW 22:01:15 10° SW
Cosmos 1939 Rocket 3.7 21:58:29 10° S 22:02:17 45° W 22:06:04 10° NNW
Meteor 1-11 4.5 21:58:45 15° SSE 22:03:24 51° E 22:08:56 10° NNE
DELTA 2 R/B (1) 3.5 21:59:04 10° WNW 22:04:37 77° SSW 22:08:21 21° ESE
Cosmos 405 3.6 22:01:42 10° NNW 22:05:16 56° W 22:07:59 16° S
Cosmos 1300 3.3 22:01:58 10° N 22:05:36 39° E 22:07:01 28° SE
Cosmos 2227 Rocket 3.5 22:08:49 20° ESE 22:09:36 20° E 22:13:37 10° NE
YAOGAN 6 2.5 22:09:51 29° SSE 22:11:34 72° ENE 22:15:10 10° N
Nadezhda 2 Rocket 4.4 22:05:44 10° S 22:11:53 88° E 22:18:00 10° N
Cosmos 1437 Rocket 4.3 22:09:24 10° NNW 22:12:48 31° W 22:16:13 10° SSW
CZ-4 SHROUD 3.8 22:13:34 24° SSW 22:15:10 52° W 22:18:15 10° NNW
NOSS 3-1 (C) 3.3 22:10:57 10° SSW 22:16:43 78° ESE 22:23:06 10° NE
Terra 3.2 22:17:55 20° E 22:19:36 24° ENE 22:23:24 10° NNE
H-2A R/B 3.1 22:19:46 23° ESE 22:22:05 33° ENE 22:26:51 10° N
Cosmos 2333 Rocket 3.7 22:17:43 10° N 22:22:24 25° ENE 22:25:14 17° E
SL-23 DEB 3.8 22:17:48 10° NW 22:22:33 72° NE 22:23:46 38° ESE
Cosmos 1455 4.1 22:25:42 10° NNE 22:28:10 16° ENE 22:28:13 16° ENE
DELTA 2 R/B(2) 4.1 22:26:37 10° W 22:28:24 54° N 22:28:40 49° NNE
Delta 2 Rocket 2.7 22:25:29 10° W 22:28:58 61° S 22:29:16 57° SSE
Cosmos 1680 Rocket 4.1 22:26:45 10° NNW 22:31:51 53° WSW 22:35:03 22° S
CZ-4B R/B 3.7 22:27:40 10° N 22:32:56 74° WNW 22:37:47 12° SSW
SPOT 1/Viking Rocket 3.5 22:31:26 28° S 22:34:13 81° WSW 22:39:24 10° NNW
COSMOS 2428 2.7 22:28:42 10° NNW 22:34:25 80° ENE 22:37:03 33° SSE
OAO 2 Rocket 3.7 22:29:21 10° SW 22:34:25 45° SSE 22:36:15 33° ESE
Cosmos 2297 Rocket 3.3 22:36:45 24° E 22:36:45 24° E 22:41:09 10° NE
Cosmos 2242 Rocket 3.7 22:33:33 10° N 22:37:59 58° E 22:39:10 43° SE
CZ-4C R/B 3.2 22:38:19 49° E 22:38:36 50° ENE 22:41:58 10° N
CZ-4 R/B 3.9 22:35:46 10° NNE 22:40:43 85° WNW 22:43:44 23° SSW
Cosmos 1898 Rocket 3.4 22:39:32 18° SSW 22:43:24 88° WNW 22:48:38 10° NNE
ARGOS 3.2 22:41:19 31° S 22:44:00 80° WSW 22:49:25 10° NNW
Cosmos 2219 Rocket 2.6 22:40:50 10° N 22:46:15 49° ENE 22:48:13 34° ESE
USA 245 3.6 22:46:59 34° W 22:46:59 34° W 22:49:00 10° NNW
Tiangong 1 1.2 22:44:07 10° WSW 22:47:01 69° WNW 22:47:01 69° WNW
Cosmos 2150 Rocket 4.2 22:43:36 15° SSW 22:48:08 79° WNW 22:53:39 10° NNE
DELTA 2 DEB (DPAF) 4.1 22:47:23 48° SSE 22:48:34 76° ENE 22:53:05 10° N
Cosmos 1862 Rocket 4.4 22:45:12 10° NNE 22:49:07 32° ENE 22:49:24 32° E
CARTOSAT-1 3.9 22:48:24 44° ESE 22:49:07 48° ENE 22:53:17 10° N
Cosmos 858 Rocket 4.5 22:46:12 21° SSW 22:49:45 85° WNW 22:54:59 10° NNE
Sich 1 3.3 22:48:19 29° SSW 22:50:29 66° W 22:54:53 10° N
Cosmos 1726 2.4 22:47:58 10° NNW 22:51:44 64° W 22:52:27 50° SSW
SL-08 RB Rocket 3.7 22:51:00 43° S 22:52:25 73° WSW 22:56:55 10° NNW
Cosmos 1633 Rocket 3.3 22:50:59 31° SSW 22:52:57 65° W 22:57:19 10° N
Cosmos 2237 4.4 22:50:19 10° NNW 22:55:59 64° WSW 22:58:17 36° S
FALCON 9 R/B 3.9 22:29:32 10° W 22:57:54 76° S 23:03:14 21° E
Lacrosse 4 Rocket 4.0 22:57:39 10° NNE 22:59:26 12° NE 23:00:59 10° ENE
Cosmos 1703 3.3 23:00:50 61° SW 23:01:24 75° W 23:05:19 10° N
Cosmos 1271 Rocket 2.6 22:58:01 10° N 23:01:52 82° W 23:02:06 76° SSW
Cosmos 1980 4.2 22:58:11 10° NNW 23:03:39 49° ENE 23:05:12 39° ESE
DMSP B5D2-2 3.9 23:03:02 10° NNE 23:08:16 77° ESE 23:09:38 50° S
Iridium 2 3.9 23:11:14 60° WSW 23:11:31 63° W 23:15:20 10° N
Cosmos 2237 Rocket 2.5 23:10:54 10° NNW 23:16:32 57° ENE 23:17:50 47° ESE
Cosmos 2082 3.6 23:16:22 46° S 23:18:07 79° ESE 23:23:52 10° NNE
Meteor 1-4 Rocket 3.5 23:14:56 10° NNW 23:18:30 42° W 23:18:34 41° W
NOSS 3-1 (A) 4.3 23:14:41 10° SW 23:20:22 49° NW 23:26:40 10° NNE
Cosmos 2360 Rocket 4.4 23:24:48 10° WNW 23:28:00 15° W 23:30:54 11° SW
Cosmos 1626 2.6 23:30:01 58° NW 23:30:01 58° NW 23:33:18 10° N
COSMOS 2455 3.8 23:25:20 10° NNW 23:30:54 37° NE 23:32:42 31° E
Cosmos 1241 Rocket 4.5 23:28:21 26° SW 23:32:01 77° WNW 23:38:18 10° NNE
Cosmos 1933 4.4 23:29:28 10° N 23:32:31 36° NE 23:32:31 36° NE
IGS 5A 3.9 23:34:54 55° W 23:34:54 55° W 23:38:55 10° NNW
ATLAS 2AS CENTAUR R/B 2.9 23:38:04 28° SSW 23:42:29 89° WNW 23:50:34 10° NNE
Nadezhda 1 Rocket 4.4 23:39:02 10° NNW 23:44:57 55° W 23:46:43 41° SW
Okean 1-7 4.4 23:42:50 10° NNE 23:45:52 30° NE 23:45:52 30° NE
Cosmos 1703 Rocket 4.1 23:45:42 10° N 23:49:20 53° NE 23:49:20 53° NE
Cosmos 2227 Rocket 2.9 23:50:34 29° WSW 23:53:12 50° WNW 23:58:42 10° NNE
